WX4ET Weather Reports


Display with metric or nautical units.
time (UTC)temp
F
wind
direction
speed
MPH
gust
MPH
rain 1hr
in
rain 24hr
in
rain mn
in
humidity
%
barometer
mb
20260504200343 75 355 1.0 2.0 0.00 0.02 0.02 50 1008.3
20260504195839 76 279 4.0 6.0 0.00 0.02 0.02 51 1008.3
20260504195334 76 208 3.0 3.0 0.00 0.02 0.02 52 1008.5
20260504194832 75 315 3.0 3.0 0.00 0.02 0.02 51 1008.8
20260504194328 76 24 3.0 3.0 0.00 0.02 0.02 50 1008.8
20260504193824 76 249 3.0 3.0 0.00 0.02 0.02 51 1008.8
20260504193321 76 132 0.0 1.0 0.00 0.02 0.02 47 1008.8
20260504192820 75 218 3.0 3.0 0.00 0.02 0.02 53 1009.0
20260504192318 76 175 0.0 0.0 0.00 0.02 0.02 53 1009.1
20260504191816 76 169 1.0 2.0 0.00 0.02 0.02 55 1009.2
20260504191313 77 191 2.0 2.0 0.00 0.02 0.02 50 1009.1
20260504190808 76 178 1.0 1.0 0.00 0.02 0.02 52 1009.2
20260504190305 75 155 1.0 1.0 0.00 0.02 0.02 53 1009.4
20260504185801 74 216 2.0 2.0 0.00 0.02 0.02 53 1009.4
20260504185258 73 291 4.0 5.0 0.00 0.02 0.02 52 1009.5
20260504184754 73 348 3.0 3.0 0.00 0.02 0.02 52 1009.5
20260504184250 73 189 1.0 1.0 0.00 0.02 0.02 53 1009.8
20260504183746 72 329 2.0 3.0 0.00 0.02 0.02 52 1009.7
20260504183243 71 358 0.0 2.0 0.00 0.02 0.02 53 1009.8
20260504182741 73 356 3.0 3.0 0.00 0.02 0.02 52 1009.8
20260504182238 71 105 1.0 2.0 0.00 0.02 0.02 50 1009.8
20260504181736 71 343 4.0 5.0 0.00 0.02 0.02 52 1009.9
20260504181233 71 283 2.0 2.0 0.00 0.02 0.02 53 1010.1
20260504180732 70 244 2.0 3.0 0.00 0.02 0.02 55 1010.0
20260504180231 71 324 3.0 3.0 0.00 0.02 0.02 52 1010.1
20260504175728 70 302 4.0 5.0 0.00 0.02 0.02 55 1010.4
20260504175224 69 27 2.0 2.0 0.00 0.02 0.02 54 1010.4
20260504174723 70 341 1.0 2.0 0.00 0.02 0.02 53 1010.3
20260504174220 70 271 3.0 3.0 0.00 0.02 0.02 56 1010.4
20260504173716 71 63 1.0 1.0 0.00 0.02 0.02 51 1010.5
20260504173213 68 191 1.0 2.0 0.00 0.02 0.02 53 1010.6
20260504172710 67 214 3.0 3.0 0.00 0.02 0.02 54 1010.5
20260504172206 68 286 2.0 2.0 0.00 0.02 0.02 56 1010.6
20260504171703 68 283 2.0 2.0 0.00 0.02 0.02 55 1010.8
20260504171200 68 280 3.0 3.0 0.00 0.02 0.02 53 1011.0
20260504170656 68 133 0.0 0.0 0.00 0.02 0.02 58 1011.1
20260504170154 67 305 1.0 2.0 0.00 0.02 0.02 57 1011.4
20260504160112 62 82 2.0 2.0 0.00 0.02 0.02 62 1012.6
20260504151004 53 139 0.0 0.0 0.00 0.02 0.02 92 1012.9
20260504150502 53 106 0.0 0.0 0.00 0.02 0.02 93 1013.1
20260504141235 55 233 1.0 1.0 0.00 0.00 0.00 70 1014.0
20260504140731 56 203 2.0 2.0 0.00 0.00 0.00 71 1014.4
20260504140227 55 262 2.0 2.0 0.00 0.00 0.00 72 1014.3
20260504130656 51 122 0.0 0.0 0.00 0.00 0.00 78 1013.8
20260504130152 51 153 1.0 1.0 0.00 0.00 0.00 77 1013.5
20260504120116 47 249 0.0 0.0 0.00 0.00 0.00 87 1012.5
20260504110543 42 119 0.0 0.0 0.00 0.00 0.00 95 1012.3
20260504100505 41 104 0.0 0.0 0.00 0.00 0.00 94 1012.2
20260504081858 41 113 0.0 0.0 0.00 0.00 0.00 92 1012.7
20260504081355 42 121 0.0 0.0 0.00 0.00 0.00 92 1012.4
20260504080850 41 107 0.0 0.0 0.00 0.00 0.00 92 1012.5
20260504080348 41 104 0.0 0.0 0.00 0.00 0.00 93 1012.4
20260504070315 42 127 0.0 0.0 0.00 0.00 0.00 93 1012.4
20260504060236 43 88 0.0 0.0 0.00 0.00 0.00 89 1012.8
20260504050704 44 98 0.0 0.0 0.00 0.00 0.00 89 1012.5
20260504050200 44 98 0.0 0.0 0.00 0.00 0.00 88 1012.5
20260504045657 44 98 0.0 0.0 0.00 0.00 0.00 88 1012.6
20260504045152 44 98 0.0 0.0 0.00 0.00 0.00 87 1012.5
20260504044650 44 98 0.0 0.0 0.00 0.00 0.00 87 1012.4
20260504044147 44 98 0.0 0.0 0.00 0.00 0.00 87 1012.4
20260504043644 45 98 0.0 0.0 0.00 0.00 0.00 87 1012.4
20260504043141 45 98 0.0 0.0 0.00 0.00 0.00 86 1012.4
20260504042639 45 98 0.0 0.0 0.00 0.00 0.00 86 1012.4
20260504042135 45 98 0.0 0.0 0.00 0.00 0.00 86 1012.4
20260504041631 46 98 0.0 0.0 0.00 0.00 0.00 85 1012.3
20260504041127 46 108 0.0 0.0 0.00 0.00 0.00 84 1012.2
20260504040624 46 102 0.0 0.0 0.00 0.00 0.00 84 1012.4
20260504040121 46 98 0.0 0.0 0.00 0.00 0.00 82 1012.2
20260504035618 46 104 0.0 0.0 0.00 0.00 0.00 82 1012.1
20260504035114 46 101 0.0 0.0 0.00 0.00 0.00 82 1012.1
20260504034612 46 107 0.0 0.0 0.00 0.00 0.00 83 1012.3
20260504034109 47 107 0.0 0.0 0.00 0.00 0.00 82 1012.2
20260504033607 47 107 0.0 0.0 0.00 0.00 0.00 81 1012.3
20260504033104 47 107 0.0 0.0 0.00 0.00 0.00 81 1012.4
20260504032601 48 107 0.0 0.0 0.00 0.00 0.00 79 1012.0
20260504032058 48 107 0.0 0.0 0.00 0.00 0.00 79 1012.0
20260504031555 48 109 0.0 0.0 0.00 0.00 0.00 80 1011.9
20260504031051 48 101 0.0 0.0 0.00 0.00 0.00 79 1012.2
20260504030548 48 100 0.0 0.0 0.00 0.00 0.00 78 1012.2
20260504030044 48 100 0.0 0.0 0.00 0.00 0.00 78 1012.0
20260504025542 48 116 0.0 0.0 0.00 0.00 0.00 78 1012.0
20260504025038 48 117 0.0 0.0 0.00 0.00 0.00 79 1012.0
20260504024535 48 117 0.0 0.0 0.00 0.00 0.00 77 1012.0
20260504024032 48 117 0.0 0.0 0.00 0.00 0.00 77 1012.1
20260504023529 49 117 0.0 0.0 0.00 0.00 0.00 76 1012.1
20260504023025 49 117 0.0 0.0 0.00 0.00 0.00 75 1012.0
20260504022520 49 116 0.0 0.0 0.00 0.00 0.00 75 1012.1
20260504022017 50 115 0.0 0.0 0.00 0.00 0.00 73 1011.8
20260504021515 50 107 0.0 0.0 0.00 0.00 0.00 73 1011.6
20260504021012 50 106 0.0 0.0 0.00 0.00 0.00 72 1011.6
20260504020508 50 117 0.0 0.0 0.00 0.00 0.00 73 1011.6
20260504020005 51 103 0.0 0.0 0.00 0.00 0.00 73 1011.6
20260504015501 51 98 0.0 0.0 0.00 0.00 0.00 72 1011.7
20260504014957 51 98 0.0 0.0 0.00 0.00 0.00 71 1011.7
20260504014453 52 98 0.0 0.0 0.00 0.00 0.00 68 1011.6
20260504013950 52 94 0.0 0.0 0.00 0.00 0.00 68 1011.7
20260504013449 52 276 0.0 0.0 0.00 0.00 0.00 69 1011.7
20260504012944 53 278 0.0 0.0 0.00 0.00 0.00 65 1011.6
20260504012443 53 278 0.0 0.0 0.00 0.00 0.00 64 1011.5
20260504011940 53 278 0.0 0.0 0.00 0.00 0.00 64 1011.7
20260504011436 54 278 0.0 0.0 0.00 0.00 0.00 63 1011.7
20260504010932 55 278 0.0 0.0 0.00 0.00 0.00 62 1011.6
20260504010429 55 278 0.0 0.0 0.00 0.00 0.00 60 1011.7
20260504005925 56 278 0.0 0.0 0.00 0.00 0.00 58 1011.6
20260504005422 58 280 0.0 0.0 0.00 0.00 0.00 64 1011.5
20260504004919 59 299 1.0 1.0 0.00 0.00 0.00 51 1011.5
20260504004417 59 261 1.0 1.0 0.00 0.00 0.00 52 1011.2
20260504003914 59 261 0.0 0.0 0.00 0.00 0.00 52 1011.2
20260504003410 59 305 1.0 2.0 0.00 0.00 0.00 51 1011.3
20260504002907 59 247 2.0 2.0 0.00 0.00 0.00 49 1011.3
20260504002404 58 235 0.0 0.0 0.00 0.00 0.00 53 1011.2
20260504001901 58 215 0.0 0.0 0.00 0.00 0.00 51 1011.0
20260504001359 60 218 0.0 0.0 0.00 0.00 0.00 55 1010.8
20260504000855 60 250 0.0 0.0 0.00 0.00 0.00 50 1011.0
20260504000354 60 77 0.0 2.0 0.00 0.00 0.00 49 1011.1
20260503235849 60 159 0.0 0.0 0.00 0.00 0.00 52 1011.1
20260503235347 62 192 0.0 0.0 0.00 0.00 0.00 47 1010.9
20260503234844 62 278 1.0 1.0 0.00 0.00 0.00 46 1011.1
20260503234342 63 217 1.0 1.0 0.00 0.00 0.00 45 1011.2
20260503233840 64 232 1.0 2.0 0.00 0.00 0.00 45 1011.0
20260503233336 64 338 2.0 2.0 0.00 0.00 0.00 42 1011.1
20260503232832 64 173 1.0 2.0 0.00 0.00 0.00 43 1011.0
20260503232330 64 100 1.0 2.0 0.00 0.00 0.00 43 1011.2
20260503231827 64 271 1.0 1.0 0.00 0.00 0.00 42 1011.2
20260503231324 65 207 0.0 0.0 0.00 0.00 0.00 41 1011.3
20260503230820 65 284 2.0 2.0 0.00 0.00 0.00 41 1011.3
20260503230317 65 221 2.0 2.0 0.00 0.00 0.00 40 1011.2
20260503225815 66 291 2.0 3.0 0.00 0.00 0.00 40 1011.2
20260503225310 65 179 0.0 0.0 0.00 0.00 0.00 43 1011.5
20260503224807 65 314 3.0 5.0 0.00 0.00 0.00 38 1011.5
20260503224305 65 303 1.0 2.0 0.00 0.00 0.00 39 1011.6
20260503223802 66 308 2.0 2.0 0.00 0.00 0.00 38 1011.5
20260503223300 66 234 0.0 1.0 0.00 0.00 0.00 38 1011.2
20260503222755 66 193 1.0 2.0 0.00 0.00 0.00 39 1011.5
20260503222254 66 126 1.0 1.0 0.00 0.00 0.00 37 1011.4
20260503221752 66 0 3.0 3.0 0.00 0.00 0.00 37 1011.6
20260503221249 66 259 3.0 5.0 0.00 0.00 0.00 37 1011.7
20260503220746 66 291 4.0 5.0 0.00 0.00 0.00 37 1011.8
20260503220243 66 199 2.0 3.0 0.00 0.00 0.00 38 1011.6
20260503215739 66 289 4.0 5.0 0.00 0.00 0.00 38 1011.8
20260503215236 65 284 3.0 3.0 0.00 0.00 0.00 39 1011.6
20260503214735 66 299 2.0 3.0 0.00 0.00 0.00 37 1011.8
20260503214231 66 257 4.0 5.0 0.00 0.00 0.00 40 1011.8
20260503213729 66 296 5.0 6.0 0.00 0.00 0.00 37 1011.8
20260503213226 66 308 2.0 3.0 0.00 0.00 0.00 37 1012.1
20260503212723 66 289 4.0 6.0 0.00 0.00 0.00 37 1012.1
20260503212221 65 313 2.0 3.0 0.00 0.00 0.00 37 1012.0
20260503211718 66 320 5.0 7.0 0.00 0.00 0.00 36 1012.0
20260503211214 66 258 5.0 6.0 0.00 0.00 0.00 38 1012.1
20260503210710 66 302 4.0 5.0 0.00 0.00 0.00 37 1012.2
20260503210207 66 246 3.0 5.0 0.00 0.00 0.00 38 1012.1
20260503205703 65 282 3.0 3.0 0.00 0.00 0.00 37 1012.2
20260503205159 65 275 5.0 6.0 0.00 0.00 0.00 37 1012.1
20260503204655 66 198 4.0 5.0 0.00 0.00 0.00 38 1012.4
20260503204153 66 207 0.0 1.0 0.00 0.00 0.00 40 1012.2
20260503203650 65 243 1.0 2.0 0.00 0.00 0.00 40 1012.5
20260503203148 65 215 0.0 0.0 0.00 0.00 0.00 39 1012.5
20260503202644 64 266 3.0 3.0 0.00 0.00 0.00 40 1012.6
20260503202143 64 279 3.0 5.0 0.00 0.00 0.00 37 1012.8
20260503201641 65 323 4.0 5.0 0.00 0.00 0.00 38 1012.8
20260503201137 64 136 4.0 6.0 0.00 0.00 0.00 39 1013.0
20260503200633 63 246 1.0 3.0 0.00 0.00 0.00 37 1012.9